Total_Precipitation_Accumulation
0.00 0.01 0.01 0.02 0.01 0.03 0.05 0.08 0.16 0.20 0.14 0.15 0.29 0.46 0.57 0.62 0.80 0.86 0.78 0.69 0.64 0.78 0.90 1.03 1.28 1.53 1.86 2.21 2.66 2.85 2.80 2.32 1.83 1.63 1.44 1.34 1.22 1.18 1.24 1.24 1.19 1.15 1.05 1.04
0.02 0.04 0.03 0.02 0.03 0.04 0.08 0.11 0.18 0.19 0.12 0.14 0.30 0.55 0.69 0.72 0.68 0.72 0.65 0.65 0.63 0.87 1.08 1.34 1.74 1.88 1.78 2.03 2.51 2.54 2.06 1.59 1.30 1.15 1.04 0.92 0.89 0.88 0.87 0.84 0.82 0.81 0.82 0.87
0.04 0.05 0.03 0.03 0.05 0.10 0.11 0.13 0.16 0.15 0.13 0.19 0.35 0.65 0.86 0.79 0.55 0.48 0.50 0.50 0.58 0.84 1.15 1.36 1.67 1.71 1.57 1.77 1.79 1.48 1.18 0.92 0.73 0.63 0.59 0.62 0.59 0.59 0.53 0.48 0.48 0.53 0.58 0.59
0.03 0.03 0.03 0.03 0.06 0.06 0.08 0.07 0.06 0.06 0.12 0.25 0.38 0.83 1.10 0.91 0.64 0.52 0.49 0.52 0.54 0.55 0.66 0.86 1.03 1.12 1.18 1.18 1.01 0.83 0.73 0.61 0.55 0.55 0.50 0.56 0.50 0.45 0.41 0.35 0.36 0.40 0.42 0.42
0.03 0.03 0.03 0.04 0.04 0.04 0.04 0.04 0.04 0.07 0.11 0.23 0.39 0.66 0.96 0.98 0.85 0.70 0.58 0.53 0.45 0.37 0.36 0.45 0.51 0.56 0.62 0.63 0.58 0.49 0.56 0.63 0.59 0.55 0.49 0.45 0.38 0.33 0.30 0.32 0.36 0.41 0.42 0.41
0.05 0.05 0.04 0.03 0.03 0.04 0.04 0.05 0.11 0.22 0.31 0.51 0.46 0.52 0.81 0.80 0.77 0.73 0.57 0.42 0.32 0.27 0.29 0.32 0.31 0.27 0.26 0.27 0.27 0.28 0.37 0.48 0.45 0.44 0.42 0.40 0.37 0.35 0.31 0.30 0.31 0.33 0.36 0.38
0.14 0.12 0.09 0.04 0.04 0.05 0.05 0.08 0.28 0.58 0.76 0.78 0.45 0.48 0.70 0.62 0.66 0.70 0.49 0.28 0.22 0.21 0.21 0.23 0.24 0.20 0.17 0.15 0.14 0.14 0.18 0.28 0.30 0.31 0.35 0.34 0.34 0.32 0.30 0.26 0.25 0.26 0.26 0.31
0.15 0.18 0.10 0.04 0.05 0.05 0.05 0.06 0.14 0.21 0.30 0.40 0.43 0.82 0.79 0.47 0.49 0.41 0.22 0.12 0.11 0.19 0.16 0.13 0.13 0.12 0.10 0.08 0.07 0.06 0.07 0.09 0.11 0.14 0.18 0.20 0.23 0.24 0.25 0.32 0.30 0.25 0.24 0.27
0.06 0.06 0.04 0.03 0.04 0.05 0.04 0.04 0.04 0.06 0.10 0.27 0.51 0.77 0.56 0.32 0.32 0.20 0.11 0.05 0.05 0.06 0.08 0.06 0.06 0.05 0.05 0.04 0.04 0.04 0.04 0.05 0.06 0.06 0.08 0.10 0.14 0.18 0.24 0.30 0.29 0.25 0.24 0.23
0.03 0.02 0.02 0.03 0.04 0.05 0.04 0.04 0.03 0.04 0.07 0.17 0.36 0.62 0.58 0.38 0.31 0.17 0.08 0.04 0.03 0.03 0.03 0.03 0.03 0.03 0.03 0.02 0.02 0.03 0.03 0.03 0.03 0.03 0.03 0.06 0.11 0.19 0.26 0.30 0.26 0.23 0.21 0.20
0.02 0.01 0.02 0.03 0.05 0.06 0.06 0.06 0.05 0.05 0.07 0.09 0.22 0.36 0.28 0.26 0.20 0.12 0.06 0.04 0.02 0.01 0.01 0.01 0.01 0.01 0.01 0.01 0.02 0.02 0.02 0.02 0.02 0.02 0.03 0.07 0.17 0.21 0.27 0.42 0.40 0.25 0.19 0.18
0.02 0.01 0.03 0.06 0.08 0.07 0.07 0.06 0.05 0.06 0.07 0.06 0.10 0.18 0.12 0.14 0.10 0.07 0.05 0.02 0.01 0.01 0.00 0.00 0.00 0.01 0.01 0.01 0.01 0.01 0.02 0.02 0.02 0.02 0.02 0.05 0.15 0.20 0.23 0.31 0.34 0.26 0.21 0.18
0.01 0.01 0.03 0.14 0.23 0.14 0.07 0.05 0.05 0.06 0.05 0.05 0.15 0.22 0.11 0.07 0.05 0.03 0.02 0.01 0.00 0.00 0.00 0.00 0.00 0.01 0.01 0.01 0.01 0.01 0.01 0.01 0.01 0.02 0.03 0.05 0.07 0.08 0.10 0.12 0.16 0.20 0.23 0.24
0.02 0.01 0.02 0.10 0.16 0.13 0.08 0.07 0.09 0.07 0.07 0.09 0.14 0.20 0.09 0.04 0.02 0.01 0.00 0.00 0.00 0.00 0.00 0.00 0.00 0.00 0.00 0.00 0.01 0.01 0.01 0.01 0.01 0.02 0.03 0.04 0.05 0.04 0.05 0.08 0.12 0.18 0.21 0.23
0.02 0.01 0.00 0.01 0.04 0.07 0.08 0.08 0.08 0.06 0.07 0.11 0.11 0.11 0.06 0.02 0.02 0.01 0.01 0.00 0.00 0.00 0.01 0.01 0.01 0.01 0.01 0.01 0.01 0.01 0.01 0.02 0.02 0.04 0.09 0.09 0.07 0.06 0.06 0.08 0.10 0.13 0.14 0.14
0.03 0.01 0.00 0.01 0.03 0.04 0.07 0.10 0.08 0.04 0.03 0.03 0.03 0.04 0.03 0.02 0.03 0.03 0.03 0.02 0.02 0.02 0.02 0.02 0.02 0.02 0.01 0.01 0.02 0.01 0.02 0.02 0.04 0.08 0.14 0.17 0.14 0.08 0.06 0.06 0.08 0.10 0.11 0.14
0.06 0.05 0.03 0.02 0.04 0.04 0.13 0.12 0.07 0.04 0.03 0.04 0.05 0.06 0.05 0.06 0.06 0.07 0.08 0.06 0.05 0.04 0.03 0.02 0.01 0.01 0.01 0.01 0.01 0.02 0.02 0.03 0.10 0.13 0.11 0.18 0.20 0.10 0.06 0.07 0.09 0.13 0.14 0.18
0.05 0.05 0.05 0.04 0.04 0.11 0.10 0.05 0.05 0.05 0.05 0.06 0.07 0.08 0.09 0.11 0.10 0.10 0.11 0.08 0.04 0.02 0.01 0.01 0.00 0.00 0.00 0.00 0.01 0.02 0.05 0.05 0.13 0.16 0.13 0.19 0.21 0.13 0.13 0.15 0.17 0.20 0.24 0.28
0.06 0.06 0.05 0.04 0.04 0.09 0.07 0.08 0.08 0.10 0.10 0.09 0.11 0.13 0.13 0.11 0.07 0.05 0.04 0.02 0.01 0.01 0.00 0.00 0.00 0.00 0.00 0.01 0.01 0.03 0.08 0.11 0.12 0.15 0.14 0.21 0.28 0.24 0.24 0.26 0.29 0.34 0.38 0.39
0.07 0.07 0.07 0.07 0.11 0.13 0.12 0.13 0.14 0.13 0.20 0.17 0.15 0.12 0.08 0.06 0.05 0.03 0.02 0.01 0.01 0.01 0.00 0.00 0.00 0.00 0.01 0.02 0.04 0.05 0.08 0.13 0.15 0.16 0.18 0.24 0.37 0.42 0.40 0.39 0.42 0.44 0.52 0.55
0.11 0.11 0.12 0.14 0.17 0.17 0.15 0.16 0.16 0.26 0.34 0.26 0.23 0.18 0.16 0.14 0.12 0.07 0.05 0.04 0.02 0.01 0.01 0.01 0.01 0.02 0.03 0.05 0.08 0.12 0.14 0.16 0.18 0.20 0.24 0.30 0.44 0.58 0.57 0.56 0.56 0.58 0.62 0.68
0.14 0.15 0.16 0.23 0.35 0.35 0.21 0.19 0.28 0.39 0.35 0.30 0.26 0.21 0.18 0.16 0.11 0.08 0.06 0.05 0.03 0.03 0.03 0.03 0.04 0.05 0.07 0.10 0.17 0.22 0.23 0.23 0.26 0.28 0.32 0.38 0.51 0.55 0.59 0.67 0.73 0.81 0.85 0.86
0.12 0.13 0.17 0.27 0.37 0.32 0.28 0.27 0.28 0.31 0.31 0.26 0.20 0.18 0.17 0.15 0.13 0.12 0.10 0.07 0.06 0.05 0.04 0.05 0.06 0.09 0.13 0.18 0.28 0.37 0.38 0.39 0.40 0.39 0.40 0.45 0.53 0.66 0.81 0.86 0.83 0.89 0.98 1.02
0.07 0.08 0.12 0.22 0.27 0.29 0.25 0.21 0.18 0.13 0.11 0.10 0.09 0.09 0.09 0.11 0.10 0.10 0.10 0.08 0.08 0.07 0.06 0.06 0.08 0.13 0.19 0.26 0.39 0.48 0.51 0.53 0.51 0.46 0.44 0.48 0.58 0.68 0.82 0.97 1.00 1.05 1.08 1.10
0.04 0.06 0.12 0.21 0.22 0.25 0.25 0.19 0.14 0.08 0.05 0.03 0.03 0.03 0.05 0.08 0.09 0.10 0.11 0.11 0.08 0.07 0.07 0.09 0.13 0.19 0.23 0.32 0.47 0.54 0.59 0.62 0.60 0.53 0.48 0.48 0.56 0.66 0.74 0.87 0.99 1.02 1.04 0.99
0.04 0.06 0.12 0.16 0.15 0.15 0.14 0.09 0.05 0.03 0.03 0.02 0.02 0.02 0.03 0.05 0.06 0.06 0.07 0.07 0.06 0.07 0.10 0.14 0.19 0.25 0.28 0.34 0.45 0.54 0.67 0.80 0.82 0.72 0.62 0.55 0.54 0.62 0.70 0.80 0.83 0.75 0.74 0.72